SQ7PKP-15 Weather Reports


time (UTC)temp
F
wind
direction
speed
knots
gust
knots
rain 1hr
in
rain 24hr
in
rain mn
in
humidity
%
barometer
mb
20260503072315 65 0.0 0.0 0.00 0.00 0.00 42 1017.8
20260503071243 64 0.0 0.0 0.00 0.00 0.00 43 1018.1
20260503070243 63 0.0 0.0 0.00 0.00 0.00 46 1018.0
20260503060242 58 0.0 0.0 0.00 0.00 0.00 51 1018.1
20260503054243 56 0.0 0.0 0.00 0.00 0.00 62 1017.6
20260503053243 54 0.0 0.0 0.00 0.00 0.00 64 1018.1
20260503052243 53 0.0 0.0 0.00 0.00 0.00 68 1018.1
20260503051243 52 0.0 0.0 0.00 0.00 0.00 70 1018.2
20260503050243 50 0.0 0.0 0.00 0.00 0.00 76 1018.4
20260503045243 49 0.0 0.0 0.00 0.00 0.00 78 1018.2
20260503044246 48 0.0 0.0 0.00 0.00 0.00 76 1018.0
20260503043258 46 0.0 0.0 0.00 0.00 0.00 79 1018.5
20260503042243 44 0.0 0.0 0.00 0.00 0.00 80 1018.8
20260503041243 43 0.0 0.0 0.00 0.00 0.00 83 1019.0
20260503040243 42 0.0 0.0 0.00 0.00 0.00 84 1019.4
20260503035258 42 0.0 0.0 0.00 0.00 0.00 84 1020.1
20260503034259 42 0.0 0.0 0.00 0.00 0.00 83 1020.1
20260503033259 42 0.0 0.0 0.00 0.00 0.00 83 1020.0
20260503032243 42 0.0 0.0 0.00 0.00 0.00 83 1020.5
20260503031243 42 0.0 0.0 0.00 0.00 0.00 83 1020.0
20260503030243 42 0.0 0.0 0.00 0.00 0.00 84 1019.9
20260503025243 41 0.0 0.0 0.00 0.00 0.00 84 1020.4
20260503024243 42 0.0 0.0 0.00 0.00 0.00 84 1020.3
20260503023258 42 0.0 0.0 0.00 0.00 0.00 84 1020.7
20260503022246 42 0.0 0.0 0.00 0.00 0.00 84 1020.4
20260503021330 43 0.0 0.0 0.00 0.00 0.00 82 1020.5
20260503020243 43 0.0 0.0 0.00 0.00 0.00 82 1020.6
20260503015242 43 0.0 0.0 0.00 0.00 0.00 82 1020.5
20260503014243 43 0.0 0.0 0.00 0.00 0.00 80 1020.5
20260503013243 44 0.0 0.0 0.00 0.00 0.00 80 1020.4
20260503012243 44 0.0 0.0 0.00 0.00 0.00 80 1020.6
20260503011242 44 0.0 0.0 0.00 0.00 0.00 79 1020.5
20260503010258 44 0.0 0.0 0.00 0.00 0.00 79 1020.7
20260503005243 45 0.0 0.0 0.00 0.00 0.00 77 1020.7
20260503004242 45 0.0 0.0 0.00 0.00 0.00 76 1020.5
20260503003246 45 0.0 0.0 0.00 0.00 0.00 75 1020.8
20260503002243 46 0.0 0.0 0.00 0.00 0.00 74 1020.5
20260503001242 46 0.0 0.0 0.00 0.00 0.00 74 1020.7
20260503000242 46 0.0 0.0 0.00 0.00 0.00 73 1020.5
20260502235246 47 0.0 0.0 0.00 0.00 0.00 72 1020.8
20260502234242 47 0.0 0.0 0.00 0.00 0.00 70 1020.9
20260502233243 48 0.0 0.0 0.00 0.00 0.00 68 1021.0
20260502232243 49 0.0 0.0 0.00 0.00 0.00 65 1020.9
20260502231243 49 0.0 0.0 0.00 0.00 0.00 65 1020.3
20260502230243 49 0.0 0.0 0.00 0.00 0.00 65 1020.2
20260502224242 49 0.0 0.0 0.00 0.00 0.00 65 1020.4
20260502223243 49 0.0 0.0 0.00 0.00 0.00 66 1021.1
20260502222258 50 0.0 0.0 0.00 0.00 0.00 64 1021.3
20260502221246 51 0.0 0.0 0.00 0.00 0.00 62 1020.4
20260502220243 51 0.0 0.0 0.00 0.00 0.00 63 1020.0
20260502215301 50 0.0 0.0 0.00 0.00 0.00 65 1020.6
20260502214243 50 0.0 0.0 0.00 0.00 0.00 67 1021.0
20260502213242 51 0.0 0.0 0.00 0.00 0.00 68 1021.1
20260502212243 51 0.0 0.0 0.00 0.00 0.00 66 1021.2
20260502211246 52 0.0 0.0 0.00 0.00 0.00 61 1021.1
20260502210243 52 0.0 0.0 0.00 0.00 0.00 62 1020.4
20260502205243 52 0.0 0.0 0.00 0.00 0.00 64 1021.1
20260502204243 52 0.0 0.0 0.00 0.00 0.00 64 1021.4
20260502203243 53 0.0 0.0 0.00 0.00 0.00 63 1021.6
20260502202314 54 0.0 0.0 0.00 0.00 0.00 61 1021.3
20260502201244 54 0.0 0.0 0.00 0.00 0.00 60 1021.0
20260502200243 55 0.0 0.0 0.00 0.00 0.00 61 1021.2
20260502195259 55 0.0 0.0 0.00 0.00 0.00 59 1021.4
20260502194242 56 0.0 0.0 0.00 0.00 0.00 54 1021.3
20260502193314 57 0.0 0.0 0.00 0.00 0.00 53 1021.3
20260502192243 57 0.0 0.0 0.00 0.00 0.00 50 1021.3
20260502191243 58 0.0 0.0 0.00 0.00 0.00 50 1021.6
20260502190242 59 0.0 0.0 0.00 0.00 0.00 48 1021.5
20260502185243 60 0.0 0.0 0.00 0.00 0.00 46 1021.7
20260502184243 61 0.0 0.0 0.00 0.00 0.00 45 1021.7
20260502183243 63 0.0 0.0 0.00 0.00 0.00 41 1021.7
20260502182243 64 0.0 0.0 0.00 0.00 0.00 39 1021.7
20260502181243 66 0.0 0.0 0.00 0.00 0.00 38 1021.5
20260502180243 67 0.0 0.0 0.00 0.00 0.00 36 1021.4
20260502170246 74 0.0 0.0 0.00 0.00 0.00 26 1020.4
20260502164246 76 0.0 0.0 0.00 0.00 0.00 26 1022.4
20260502163242 79 0.0 0.0 0.00 0.00 0.00 23 1020.2
20260502162243 79 0.0 0.0 0.00 0.00 0.00 23 1023.1
20260502161246 83 0.0 0.0 0.00 0.00 0.00 21 1020.0
20260502160243 83 0.0 0.0 0.00 0.00 0.00 18 1019.8
20260502152246 82 0.0 0.0 0.00 0.00 0.00 20 1021.7
20260502151243 83 0.0 0.0 0.00 0.00 0.00 19 1020.8
20260502150315 83 0.0 0.0 0.00 0.00 0.00 18 1023.8
20260502130242 83 0.0 0.0 0.00 0.00 0.00 20 1022.8
20260502123243 83 0.0 0.0 0.00 0.00 0.00 22 1020.4
20260502122243 80 0.0 0.0 0.00 0.00 0.00 25 1024.0
20260502121243 82 0.0 0.0 0.00 0.00 0.00 23 1022.5
20260502120243 82 0.0 0.0 0.00 0.00 0.00 21 1023.2
20260502115242 82 0.0 0.0 0.00 0.00 0.00 21 1023.2
20260502114243 82 0.0 0.0 0.00 0.00 0.00 21 1022.8
20260502113243 82 0.0 0.0 0.00 0.00 0.00 22 1021.1
20260502112243 80 0.0 0.0 0.00 0.00 0.00 23 1024.8
20260502111246 81 0.0 0.0 0.00 0.00 0.00 23 1021.2
20260502110243 79 0.0 0.0 0.00 0.00 0.00 22 1024.2
20260502105242 79 0.0 0.0 0.00 0.00 0.00 24 1022.0
20260502104258 77 0.0 0.0 0.00 0.00 0.00 24 1024.0
20260502103243 77 0.0 0.0 0.00 0.00 0.00 26 1026.2
20260502102243 79 0.0 0.0 0.00 0.00 0.00 25 1023.4
20260502101243 79 0.0 0.0 0.00 0.00 0.00 25 1023.3
20260502100243 78 0.0 0.0 0.00 0.00 0.00 26 1023.2
20260502091246 73 0.0 0.0 0.00 0.00 0.00 29 1024.2
20260502090243 72 0.0 0.0 0.00 0.00 0.00 32 1025.3